Tracking 31013 objects as of 10-Jul-2025
HD Live streaming from Space Station
objects crossing your sky now

STARLINK-4587

Track STARLINK-4587 now!
10-day predictions
STARLINK-4587 is classified as:


NORAD ID: 53635
Int'l Code: 2022-104AZ
Perigee: 546.1 km
Apogee: 547.7 km
Inclination: 53.2 °
Period: 95.4 minutes
Semi major axis: 6917 km
RCS: Unknown
Launch date: August 28, 2022
Source: United States (US)
Launch site: AIR FORCE EASTERN TEST RANGE (AFETR)
Your satellite tracking list
Your tracking list is empty




NASA's NSSDC Master Catalog

Two Line Element Set (TLE):
1 53635U 22104AZ  25190.83763835  .00000066  00000-0  22240-4 0  9997
2 53635  53.2167 234.2729 0001166  84.4739 275.6386 15.08836953159567
Source of the keplerian elements: AFSPC